User: anonymous   Login
Location: Tucson
(32.2217°N, 110.9265°W)
Time: 04:29:19
(UTC-07:00)
Language:

Envisat - Orbit

View from above orbital plane
View from above orbital plane
View from above satellite
View from above satellite

Ground track
Ground track

The orbit data is extracted from the following two-line orbital elements,

1 27386U 02009A   22333.19523316  .00000132  00000-0  57135-4 0  9991
2 27386  98.2050 306.7474 0001318  85.7333 280.6978 14.38190177 87214
Epoch (UTC): 29 November 2022 04:41:08
Eccentricity: 0.0001318
inclination: 98.2050°
perigee height: 763 km
apogee height: 765 km
right ascension of ascending node: 306.7474°
argument of perigee: 85.7333°
revolutions per day: 14.38190177
mean anomaly at epoch: 280.6978°
orbit number at epoch: 8721

The dashed part of the orbit path shows where the satellite is in the earth's shadow,  

DLR